Location: ?
(35.4554°N, 139.3092°E)
Time: 22:51:57
(UTC+00:00)

Centaur D-1AR AC-39 - Pass Details

Date: 21 April 2021
Orbit: 563 x 36218 km, 21.1° (Epoch: 09 May)

Event Time Altitude Azimuth Distance (km) Brightness Sun altitude
Exits shadow 19:16:33 - 225° (SW) 2,599 4.2 -9.6°
Reaches altitude 10° 19:16:39 10° 225° (SW) 2,569 4.1 -9.5°
Maximum altitude 19:21:48 34° 158° (SSE) 2,546 4.7 -8.6°
Drops below altitude 10° 19:43:39 10° 102° (ESE) 10,533 8.9 -4.4°
Sets 20:17:04 0° 98° (E) 19,763 10.7 2.2°
